Wind_Speed
59 58 54 51 52 52 46 41 37 29 26 32 44 59 63 65 68 72 82 87 85 89 87 86 83 83 85 86 88 87 87 84 83 84 88 90 85 82 83 81 75 83 83 82
65 60 54 51 49 50 48 40 37 31 29 31 39 51 61 62 64 66 68 74 84 88 86 86 88 85 83 83 89 88 87 85 84 84 88 89 88 89 87 85 84 83 80 82
62 61 58 52 48 47 48 45 39 35 30 34 38 46 57 62 63 64 64 66 69 74 84 91 86 89 89 88 86 89 88 84 84 86 86 90 91 88 87 85 87 86 84 85
64 63 61 57 51 45 48 46 44 40 34 34 42 43 54 61 64 65 64 63 63 67 72 77 79 75 76 80 93 91 90 88 84 83 85 87 88 88 89 88 83 81 83 86
74 67 62 58 56 51 49 48 47 45 40 35 43 47 46 57 63 65 66 66 63 63 67 68 73 74 74 75 80 89 91 88 83 81 84 84 86 87 91 90 89 87 86 84
78 72 67 62 59 55 52 50 46 46 45 40 47 50 46 49 60 69 70 70 70 67 68 71 72 69 72 71 75 77 84 88 87 85 82 80 78 83 88 94 95 92 91 89
81 77 71 67 62 59 55 54 51 47 48 47 49 49 46 52 57 62 73 75 74 73 71 72 77 77 75 73 71 75 81 82 84 83 81 81 78 77 82 84 89 96 93 94
83 78 74 68 64 60 58 57 57 53 52 51 52 48 48 52 59 62 66 73 80 79 78 76 77 82 82 81 79 77 81 81 80 82 81 78 77 76 77 80 82 88 94 91
87 78 75 68 64 62 59 59 62 60 57 56 55 52 51 55 58 62 68 71 76 85 85 85 83 85 85 85 83 88 83 84 87 84 82 79 75 73 74 78 79 81 85 86
89 79 70 67 66 65 64 64 63 65 63 61 55 54 56 58 63 65 68 73 76 81 87 92 91 90 90 89 87 88 89 87 86 88 86 84 77 72 71 73 78 79 79 81
86 79 71 69 67 68 68 68 67 69 68 64 62 56 61 64 65 66 70 74 79 83 85 91 96 96 95 92 91 89 88 90 89 86 85 88 84 78 72 70 72 75 77 73
84 78 73 72 70 70 71 71 70 70 69 71 67 57 63 69 71 72 74 76 80 85 90 91 93 98 100 97 95 95 92 87 93 93 89 87 87 83 77 72 71 73 74 72
82 77 74 72 73 72 72 72 73 75 75 73 75 60 67 71 76 78 81 82 82 85 91 96 96 96 98 103 101 99 98 95 91 98 95 90 87 86 82 77 73 72 74 72
83 79 76 77 77 73 74 75 76 78 79 81 76 74 71 75 80 83 86 87 89 89 88 94 100 101 100 102 104 104 103 103 98 93 100 97 92 87 85 82 77 75 73 72
84 80 79 78 78 77 74 74 82 82 83 85 80 83 76 83 85 85 88 90 89 88 91 92 94 102 105 105 105 106 107 105 104 101 96 101 98 94 88 84 81 79 79 73
84 82 80 78 82 82 77 74 82 86 88 90 90 83 85 93 88 83 86 87 89 92 93 95 98 100 109 108 108 107 109 109 106 103 100 97 100 100 94 90 85 81 81 79
84 84 83 76 82 84 74 76 83 84 90 94 88 80 82 85 88 86 85 84 86 90 94 96 99 101 104 109 109 109 109 109 110 107 103 99 99 98 99 94 91 87 83 80
84 85 83 79 82 78 75 78 78 86 87 88 84 77 77 82 87 88 86 86 85 84 89 93 96 96 99 104 109 112 110 109 110 111 109 105 101 100 98 95 93 90 86 82
84 83 83 79 80 77 65 80 75 78 73 78 86 84 79 78 80 76 78 79 81 84 84 86 91 95 96 100 104 110 113 108 107 109 111 109 105 106 102 100 96 93 88 86
82 81 80 78 76 69 63 77 76 73 65 79 84 81 80 80 81 72 78 83 76 79 84 86 86 87 92 96 97 99 107 112 107 104 107 110 110 106 106 103 99 96 92 88
78 76 73 74 74 67 71 71 75 70 71 74 81 80 81 82 82 78 77 80 74 75 80 85 85 82 83 89 91 94 97 107 106 103 102 108 113 110 107 106 103 99 97 93
71 70 69 67 69 70 70 71 70 67 62 65 67 72 73 74 75 76 75 78 78 74 76 80 81 80 80 82 86 89 93 99 103 103 100 105 110 114 111 107 105 101 100 97
65 68 69 68 66 70 66 65 68 62 56 59 59 62 62 63 65 68 72 72 72 71 68 70 75 75 76 79 81 85 90 93 98 99 100 103 107 113 115 111 106 104 100 98
66 71 68 67 65 65 60 60 64 62 54 53 54 55 55 53 57 60 63 65 69 68 67 66 65 66 70 77 76 77 86 87 92 95 99 100 104 108 115 115 111 104 101 97
70 69 68 61 63 56 63 54 53 57 54 46 44 50 52 50 54 54 55 57 60 63 64 61 59 61 70 79 75 73 80 82 85 89 94 97 101 106 110 115 115 110 105 101
68 63 62 55 60 53 51 49 47 48 51 52 44 42 44 47 47 47 51 53 55 57 57 56 56 60 67 71 72 68 73 77 79 84 88 93 96 101 107 109 114 113 110 104
Wind_Direction
315 312 308 304 302 302 304 301 297 294 277 255 238 231 230 230 233 234 235 233 232 232 232 232 231 235 235 234 234 235 234 234 231 232 233 235 234 236 237 240 239 243 248 247
315 309 307 302 299 298 300 299 294 289 282 264 245 232 233 231 233 235 236 237 237 233 233 233 232 232 234 236 236 234 233 233 234 232 231 233 235 237 237 237 239 242 245 248
315 313 308 305 297 293 294 295 289 282 274 269 257 239 232 233 233 235 236 238 237 237 237 234 236 235 236 234 235 236 234 233 233 233 232 233 234 234 236 237 238 239 241 246
313 312 311 306 300 293 289 289 286 278 269 261 261 249 238 235 236 235 236 237 236 237 236 236 233 237 239 241 238 236 237 233 232 233 232 231 232 233 233 233 235 238 240 244
310 309 308 303 299 296 287 285 284 280 273 262 261 256 247 237 237 240 237 236 237 236 236 236 235 232 233 237 237 236 237 237 234 233 234 233 231 230 231 232 234 234 239 243
308 305 305 302 299 293 289 284 280 278 272 264 259 255 251 249 239 236 238 238 237 237 237 236 235 232 230 233 234 239 238 237 235 235 235 235 234 233 232 233 235 237 239 240
309 305 302 300 296 291 287 283 279 274 270 265 260 258 254 250 248 242 237 238 237 237 237 236 235 232 229 231 232 235 235 235 234 233 234 235 235 234 233 233 235 237 238 241
309 303 299 294 291 285 283 280 278 272 270 266 260 257 254 250 250 245 245 240 237 237 236 235 235 232 232 231 229 230 232 230 231 233 233 234 235 236 233 232 232 236 238 239
308 301 296 291 287 281 277 276 273 272 268 264 263 260 254 252 248 248 246 242 242 238 236 235 235 234 234 233 232 230 230 231 230 231 233 234 235 234 233 232 232 234 238 238
305 299 294 287 282 280 275 274 273 271 269 267 263 257 256 253 250 245 243 244 243 242 239 237 236 235 234 236 235 232 230 230 232 233 233 232 233 234 233 234 232 232 235 238
301 298 293 288 282 278 276 274 272 271 271 268 266 261 257 254 252 250 246 241 240 240 241 240 237 236 236 235 234 234 232 230 228 229 232 232 232 233 234 234 234 232 232 234
298 296 293 288 285 279 275 275 274 272 270 268 267 261 257 254 253 252 250 244 238 238 238 238 239 238 236 235 235 233 232 230 229 227 228 231 231 231 233 233 235 235 233 232
295 294 289 285 281 276 273 273 272 271 271 269 268 267 260 257 254 251 249 247 243 238 235 237 236 237 237 235 233 233 231 230 229 227 229 229 231 230 231 233 233 235 235 232
293 290 287 283 280 274 274 272 271 271 271 270 269 266 262 258 255 253 250 246 243 241 237 233 236 236 235 236 235 232 232 231 230 229 228 229 230 230 229 230 232 233 234 233
288 288 285 281 278 275 272 273 273 273 270 268 265 265 264 261 256 253 251 249 247 245 244 239 236 236 236 235 235 234 232 230 231 230 229 229 231 230 230 229 230 233 234 234
286 285 280 279 278 276 275 277 275 273 271 269 266 266 265 262 264 261 257 254 249 246 244 243 240 238 236 236 235 234 233 232 229 230 229 228 229 231 231 231 228 231 232 234
285 282 281 281 277 277 280 274 273 274 272 271 272 270 264 266 264 262 259 255 251 247 245 244 243 240 239 237 238 236 234 232 231 228 228 228 227 228 228 229 227 227 231 232
284 283 281 279 278 279 278 278 275 271 272 275 276 273 266 262 259 257 256 256 255 251 247 245 245 244 241 239 234 237 236 234 232 229 227 225 225 225 226 227 226 225 228 231
284 283 282 284 282 283 285 278 277 273 273 276 274 272 270 266 264 262 261 259 255 254 253 248 244 242 241 240 236 233 236 236 234 232 227 225 223 223 224 226 227 225 227 230
284 283 284 284 283 285 281 276 278 277 278 267 272 274 272 269 268 265 259 256 252 249 249 250 248 243 241 241 240 235 233 235 235 233 230 225 224 223 223 225 225 226 225 228
283 284 286 286 286 285 280 279 278 278 275 274 272 271 269 268 269 268 264 263 259 254 250 248 247 246 242 240 239 237 233 232 234 232 228 226 223 222 222 224 225 224 225 226
285 286 286 285 284 284 285 284 280 278 277 273 270 269 268 267 266 267 264 262 262 258 252 250 248 246 244 241 238 236 233 232 232 232 229 226 224 222 222 223 224 224 225 226
290 291 288 285 289 288 288 287 286 284 283 277 275 270 268 267 264 263 263 262 261 259 254 251 248 246 244 243 237 236 234 231 231 231 229 225 224 222 221 222 223 224 225 226
293 288 287 287 293 290 292 288 284 288 283 278 276 275 272 268 265 263 261 260 258 255 253 251 248 248 246 244 239 234 234 232 230 230 229 226 223 223 221 221 222 222 224 226
288 284 287 293 286 295 291 285 281 284 286 284 277 276 278 275 272 267 263 260 258 258 256 252 245 241 238 240 238 232 230 230 229 229 228 226 222 222 222 221 222 222 223 225
283 287 289 289 289 291 286 287 285 281 282 288 292 284 277 273 271 268 266 263 260 257 255 253 247 241 239 238 238 232 227 227 226 227 226 226 222 220 220 220 221 222 223 223
Height
10447 10441 10437 10433 10428 10423 10419 10416 10412 10411 10409 10408 10410 10407 10416 10424 10434 10441 10450 10460 10470 10480 10489 10500 10508 10515 10523 10532 10538 10545 10556 10561 10572 10579 10587 10593 10598 10604 10612 10617 10625 10618 10627 10634
10435 10429 10426 10422 10417 10412 10409 10408 10404 10403 10402 10398 10397 10403 10407 10417 10423 10429 10437 10445 10452 10463 10472 10481 10492 10497 10505 10514 10521 10528 10537 10544 10554 10564 10570 10576 10581 10587 10594 10601 10605 10610 10615 10614
10423 10416 10411 10409 10406 10402 10399 10397 10395 10393 10394 10391 10387 10394 10400 10406 10412 10418 10425 10431 10438 10445 10453 10463 10472 10480 10489 10495 10502 10508 10517 10527 10537 10545 10552 10557 10564 10574 10578 10586 10590 10595 10599 10604
10412 10404 10400 10395 10391 10392 10387 10385 10383 10383 10382 10382 10378 10384 10390 10396 10399 10405 10412 10419 10425 10431 10437 10445 10454 10461 10470 10480 10485 10489 10497 10510 10519 10525 10533 10540 10548 10557 10563 10569 10574 10584 10585 10585
10395 10392 10387 10383 10378 10378 10376 10373 10371 10371 10371 10372 10367 10369 10377 10384 10390 10394 10399 10404 10411 10418 10424 10430 10439 10448 10455 10462 10467 10471 10479 10491 10501 10507 10511 10520 10529 10538 10546 10551 10557 10565 10569 10575
10376 10375 10371 10367 10364 10362 10361 10359 10358 10356 10357 10360 10354 10354 10366 10369 10373 10377 10382 10389 10396 10402 10408 10415 10422 10429 10437 10443 10451 10456 10463 10473 10482 10489 10496 10504 10512 10521 10529 10535 10541 10548 10553 10559
10364 10357 10355 10350 10346 10344 10343 10340 10340 10342 10340 10343 10341 10342 10355 10355 10354 10360 10366 10370 10377 10384 10390 10395 10402 10410 10419 10427 10433 10440 10447 10455 10463 10470 10479 10486 10495 10502 10510 10518 10524 10530 10536 10544
10347 10342 10335 10333 10328 10326 10325 10322 10320 10321 10322 10324 10325 10333 10335 10337 10339 10341 10344 10350 10357 10363 10370 10376 10383 10390 10398 10407 10414 10421 10428 10436 10444 10452 10460 10469 10477 10485 10492 10500 10506 10511 10517 10530
10325 10323 10317 10312 10308 10306 10307 10304 10299 10301 10304 10305 10308 10315 10319 10319 10319 10321 10325 10328 10333 10340 10347 10353 10361 10369 10377 10386 10395 10402 10408 10416 10424 10432 10441 10451 10460 10467 10475 10482 10491 10496 10503 10511
10303 10299 10297 10292 10287 10285 10283 10282 10281 10279 10281 10284 10291 10297 10298 10297 10295 10298 10302 10308 10311 10315 10321 10329 10337 10345 10353 10363 10371 10380 10389 10397 10406 10413 10421 10432 10441 10450 10458 10466 10474 10480 10486 10494
10279 10276 10275 10269 10268 10264 10261 10262 10260 10257 10259 10261 10267 10277 10276 10274 10274 10277 10279 10283 10287 10292 10295 10300 10309 10318 10329 10339 10347 10357 10367 10377 10385 10393 10400 10411 10422 10432 10442 10450 10456 10462 10471 10479
10255 10253 10253 10246 10246 10243 10239 10239 10237 10236 10239 10235 10239 10257 10252 10249 10250 10251 10251 10254 10259 10264 10268 10275 10281 10291 10303 10313 10324 10333 10342 10353 10363 10372 10380 10389 10401 10414 10424 10432 10440 10447 10455 10465
10232 10231 10227 10225 10219 10218 10216 10216 10214 10210 10211 10214 10210 10233 10224 10221 10219 10220 10221 10224 10229 10236 10241 10247 10255 10263 10272 10283 10295 10306 10318 10328 10339 10349 10360 10370 10380 10394 10406 10415 10424 10432 10440 10450
10206 10205 10200 10198 10196 10193 10192 10194 10191 10186 10184 10183 10189 10194 10197 10193 10188 10186 10185 10192 10196 10203 10213 10222 10227 10235 10244 10253 10267 10280 10291 10304 10315 10327 10338 10349 10360 10371 10385 10396 10406 10415 10423 10434
10179 10180 10174 10171 10167 10166 10171 10174 10161 10160 10156 10151 10165 10156 10172 10155 10153 10155 10155 10162 10172 10182 10188 10198 10202 10208 10217 10226 10237 10251 10264 10277 10289 10303 10316 10327 10339 10351 10363 10377 10388 10397 10406 10417
10153 10153 10147 10149 10138 10137 10147 10153 10135 10126 10123 10117 10120 10134 10136 10117 10121 10134 10133 10137 10147 10151 10156 10161 10169 10177 10185 10196 10208 10220 10233 10249 10265 10277 10292 10305 10317 10328 10342 10357 10371 10380 10388 10399
10129 10122 10118 10127 10113 10110 10126 10121 10105 10103 10090 10080 10091 10106 10109 10099 10093 10098 10101 10106 10111 10117 10126 10132 10137 10147 10156 10169 10183 10194 10205 10220 10236 10252 10267 10282 10295 10306 10320 10334 10349 10360 10369 10381
10103 10094 10092 10097 10088 10094 10097 10089 10082 10064 10062 10057 10062 10073 10076 10066 10062 10058 10070 10075 10080 10088 10095 10103 10109 10118 10128 10137 10151 10164 10177 10191 10205 10222 10238 10255 10270 10284 10299 10313 10327 10340 10351 10361
10075 10069 10063 10067 10062 10066 10080 10047 10051 10041 10049 10045 10027 10032 10037 10035 10032 10047 10051 10050 10053 10055 10063 10069 10077 10086 10096 10104 10119 10135 10146 10161 10177 10194 10210 10228 10243 10258 10272 10288 10304 10319 10332 10342
10052 10046 10043 10041 10038 10043 10049 10020 10019 10020 10029 10008 9999 10004 10007 10005 9998 10021 10019 10011 10023 10030 10031 10035 10044 10056 10066 10076 10090 10107 10119 10132 10146 10166 10182 10201 10218 10233 10249 10264 10280 10297 10312 10322
10033 10027 10025 10015 10010 10018 10007 10002 9996 10001 9999 9993 9979 9979 9976 9975 9977 9986 9995 9988 9996 10004 10006 10007 10014 10026 10039 10047 10061 10075 10092 10104 10120 10137 10154 10171 10190 10209 10225 10241 10257 10275 10291 10302
10015 10007 10002 9998 9991 9986 9982 9978 9973 9973 9974 9967 9962 9953 9952 9953 9956 9955 9964 9963 9964 9972 9978 9984 9990 10003 10011 10021 10034 10047 10063 10075 10093 10110 10129 10145 10164 10184 10201 10218 10235 10253 10268 10283
9995 9982 9976 9972 9974 9962 9960 9954 9947 9948 9951 9944 9939 9932 9931 9933 9933 9933 9933 9939 9942 9946 9951 9959 9968 9978 9988 9994 10009 10023 10033 10049 10065 10082 10100 10119 10138 10158 10176 10194 10211 10231 10247 10262
9970 9956 9955 9947 9951 9946 9940 9931 9928 9926 9926 9922 9918 9914 9910 9915 9912 9912 9912 9915 9918 9920 9926 9931 9943 9960 9967 9969 9982 10001 10007 10022 10040 10057 10074 10092 10112 10132 10152 10171 10188 10208 10226 10241
9942 9938 9935 9940 9931 9929 9918 9918 9917 9908 9906 9904 9901 9897 9895 9896 9891 9893 9892 9893 9896 9900 9905 9913 9921 9930 9938 9939 9956 9972 9981 9997 10015 10031 10048 10066 10087 10108 10128 10148 10165 10186 10203 10219
9921 9927 9921 9925 9913 9912 9907 9900 9896 9895 9890 9886 9884 9881 9880 9879 9876 9877 9875 9874 9877 9879 9884 9893 9900 9907 9911 9921 9935 9948 9960 9976 9992 10008 10025 10044 10065 10086 10106 10126 10143 10163 10180 10198